AirNav   Pilot Hours Calculator
 
 997 users online  

63Y Tyler Municipal Airport
Tyler, Minnesota, USA

GOING TO TYLER?


FAA INFORMATION EFFECTIVE 15 JULY 2021

Location

FAA Identifier: 63Y
Lat/Long: 44-17-17.8450N 096-09-03.4400W
44-17.297417N 096-09.057333W
44.2882903,-96.1509556
(estimated)
Elevation: 1742 ft. / 531 m (estimated)
Variation: 06E (1985)
From city: 1 mile NW of TYLER, MN
Time zone: UTC -5 (UTC -6 during Standard Time)
Zip code: 56178

Airport Operations

Airport use: Open to the public
Activation date: 12/1947
Control tower: no
ARTCC: MINNEAPOLIS CENTER
FSS: PRINCETON FLIGHT SERVICE STATION
NOTAMs facility: PNM (NOTAM-D service available)
Attendance: UNATNDD
Wind indicator: lighted
Segmented circle: no
Lights: SS-SR
Beacon: white-green (lighted land airport)
Operates sunset to sunrise.

Airport Communications

CTAF: 122.9
WX AWOS-3PT at MML (17 nm NE): 120.150 (507-532-5269)
WX AWOS-3 at PQN (19 nm S): 118.375 (507-825-6895)

Nearby radio navigation aids

VOR radial/distance  VOR name  Freq  Var
MMLr231/17.0MARSHALL VOR/DME111.0005E

Airport Services

Parking: tiedowns
Airframe service: NONE
Powerplant service: NONE
Bottled oxygen: NONE
Bulk oxygen: NONE

Runway Information

Runway 14/32

Dimensions: 2517 x 160 ft. / 767 x 49 m
Surface: turf, in fair condition
BARE SPOTS, DEPRESSIONS & HOLES.
Runway edge lights: low intensity
Runway edge markings: YELLOW CONES.
RUNWAY 14  RUNWAY 32
Latitude: 44-17.473833N44-17.121000N
Longitude: 096-09.208833W096-08.905833W
Elevation: 1742.0 ft.1742.0 ft.
Traffic pattern: leftleft
Markings: NSTDNSTD
Runway end identifier lights: nono
Touchdown point: yes, no lightsyes, no lights

Airport Ownership and Management from official FAA records

Ownership: Publicly-owned
Owner: CITY OF TYLER
230 N TYLER ST
TYLER, MN 56178
Phone 507-247-5556
Manager: ROBERT WOLFINGTON
CITY OF TYLER, 230 N TYLER ST.
TYLER, MN 56178
Phone 507-247-5556

Airport Operational Statistics

Aircraft based on the field: 3
Single engine airplanes: 3
    
Aircraft operations: avg 42/week *
73% local general aviation
27% transient general aviation
* for 12-month period ending 31 August 2019

Additional Remarks

CFM SNW REMOVAL & WINT CONDS WITH AMGR FM 0800-1700, CALL 507-247-5556.
FOR CD CTC MINNEAPOLIS ARTCC AT 651-463-5588.

Instrument Procedures

There are no published instrument procedures at 63Y.

Some nearby airports with instrument procedures:

KMML - Southwest Minnesota Regional Airport - Marshall/Ryan Field (17 nm NE)
KPQN - Pipestone Municipal Airport (19 nm S)
KTKC - Tracy Municipal Airport (23 nm E)
KDVP - Slayton Municipal Airport (24 nm SE)
KCNB - Myers Field Airport (27 nm N)
 
Loc | Ops | Rwys | IFR | FBO | Links
Com | Nav | Svcs | Stats | Notes
Area around 63Y (Tyler Municipal Airport)
 
Road maps at: MapQuest Bing Google
 
Aerial photo
WARNING: Photo may not be current or correct
Aerial photo of 63Y (Tyler Municipal Airport)
Photo by Thomas W. Young
Photo taken 27-Aug-2005
view to the north

Do you have a better or more recent aerial photo of Tyler Municipal Airport that you would like to share? If so, please send us your photo.

 
Sectional chart

 
Airport distance calculator
Flying to Tyler Municipal Airport? Find the distance to fly.

From to 63Y

Sunrise and sunset
Times for 01-Aug-2021
 Local
(UTC-5)
 Zulu
(UTC)
Morning civil twilight05:4010:40
Sunrise06:1311:13
Sunset20:4901:49
Evening civil twilight21:2202:22

Current date and time
Zulu (UTC)  01-Aug-2021 14:18:34
Local (UTC-5)  01-Aug-2021 09:18:34
 
METAR
KMML 
17nm NE 
011356Z AUTO 35008KT 10SM CLR 16/12 A3024 RMK AO2 SLP241 T01610117
KPQN 
21nm S 
011355Z AUTO 03005KT 10SM CLR 17/11 A3025 RMK AO2
KTKC 
23nm E 
011355Z AUTO 34006KT 320V020 10SM CLR 17/10 A3024 RMK AO2 T01700101
KDVP 
24nm SE 
011353Z AUTO 34008KT 7SM CLR 16/11 A3025 RMK AO2 T01630110
KCNB 
27nm N 
011355Z AUTO 29007KT 270V330 10SM CLR 18/10 A3026 RMK AO2 T01800101
KBKX 
29nm W 
011356Z AUTO 35005KT 7SM CLR 17/11 A3027 RMK AO2 SLP257 T01720106 PNO $
TAF
KRWF 
48nm E 
011120Z 0112/0212 33005KT 4SM FU SCT250 FM011600 01008KT 6SM FU SKC FM020300 09003KT 6SM FU SKC FM020500 18004KT 6SM FU SKC
KFSD 
50nm SW 
011120Z 0112/0212 36004KT 6SM FU SCT250 FM012000 36010G17KT P6SM SCT250 FM020100 02005KT P6SM SCT250
NOTAMs
Click for the latest NOTAMs
NOTAMs are issued by the DoD/FAA and will open in a separate window not controlled by AirNav.

 

 
 

Would you like to see your business listed on this page?

 If your business provides an interesting product or service to pilots, flight crews, aircraft, or users of the Tyler Municipal Airport, you should consider listing it here.  To start the listing process, click on the button below
 
Add a business
 

Other Pages about Tyler Municipal Airport

Update a link
 
Copyright © AirNav, LLC. All rights reserved. Privacy Policy  Contact